St. Stephen, New Brunswick

10:26 PM ADT on March 29, 2017 (GMT -0300)
St. Stephen

Weather History for CWSS - June, 2013

Change the Weather History Date:

Monday, June 24, 2013

  Actual Average Record
Temperature  
Mean Temperature 70 °F -  
Max Temperature 83 °F - - ()
Min Temperature 56 °F - - ()
Cooling Degree Days 4    
Growing Degree Days 20 (Base 50)    
Moisture  
Dew Point 62 °F    
Average Humidity 83    
Maximum Humidity 96    
Minimum Humidity 50    
Precipitation  
Precipitation 0.03 in - - ()
Sea Level Pressure  
Sea Level Pressure 29.86 in    
Wind  
Wind Speed 2 mph ()    
Max Wind Speed 8 mph    
Max Gust Speed -    
T = Trace of Precipitation, MM = Missing Value Source: Averaged Metar Reports

Daily Weather History Graph

Daily Weather History Graph

Search for Another Location

Airport or City:

Trip Planner

Search our weather history database for the weather conditions in past years. The results will help you decide how hot, cold, wet, or windy it might be!

Date:

Astronomy

Jun. 24, 2013 Rise Set
Actual Time 5:42 AM ADT 9:20 PM ADT
Civil Twilight 5:04 AM ADT 9:58 PM ADT
Nautical Twilight 4:14 AM ADT 10:48 PM ADT
Astronomical Twilight 3:07 AM ADT 11:55 PM ADT
Moon 10:13 PM ADT (6/24) 7:10 AM ADT (6/24)
Length of Visible Light 16h 53m
Length of Day
15h 38m
Full, 98% of the Moon is Illuminated
Jun 24
Full
Jun 30
Last Quarter
Jul 8
New
Jul 16
First Quarter
Jul 22
Full

Hourly Weather History & Observations

Time (ADT) Temp. Heat Index Dew Point Humidity Pressure Visibility Wind Dir Wind Speed Gust Speed Precip Events Conditions
12:00 AM 57 °F - 55 °F 92% 29.96 in - East 3.5 mph - -  
12:00 AM 57.0 °F - 55.4 °F 94% 29.96 in - East 3.5 mph - N/A   Unknown
1:00 AM 57.2 °F - 55.6 °F 94% 29.94 in - SE 2.3 mph - N/A   Unknown
2:00 AM 57.0 °F - 55.6 °F 95% 29.92 in - ESE 3.5 mph - N/A   Unknown
3:00 AM 57 °F - 56 °F 93% 29.90 in - East 2.3 mph - -  
3:00 AM 56.8 °F - 55.6 °F 96% 29.90 in - East 2.3 mph - N/A   Unknown
4:00 AM 57.7 °F - 56.3 °F 95% 29.89 in - SE 2.3 mph - N/A   Unknown
5:00 AM 57.9 °F - 56.3 °F 94% 29.90 in - ESE 2.3 mph - N/A   Unknown
6:00 AM 58 °F - 56 °F 93% 29.91 in - East 1.2 mph - -  
6:00 AM 57.9 °F - 56.5 °F 95% 29.91 in - East 1.2 mph - N/A   Unknown
7:00 AM 57.2 °F - 55.9 °F 96% 29.91 in - ESE 2.3 mph - N/A   Unknown
8:00 AM 58.5 °F - 57.4 °F 96% 29.91 in - South 1.2 mph - N/A   Unknown
9:00 AM 61 °F - 60 °F 94% 29.90 in - ESE 1.2 mph - -  
9:00 AM 60.8 °F - 59.7 °F 96% 29.90 in - ESE 1.2 mph - N/A   Unknown
10:00 AM 65.3 °F - 63.1 °F 93% 29.88 in - East 2.3 mph - N/A   Unknown
11:00 AM 69.3 °F - 64.4 °F 84% 29.87 in - Calm Calm - N/A   Unknown
12:00 PM 72 °F - 67 °F 79% 29.87 in - North 2.3 mph - -  
12:00 PM 71.6 °F - 66.9 °F 85% 29.87 in - North 2.3 mph - N/A   Unknown
1:00 PM 71.2 °F - 68.5 °F 91% 29.87 in - NNW 3.5 mph - 0.03 in   Unknown
2:00 PM 74.1 °F - 68.7 °F 83% 29.85 in - SE 1.2 mph - N/A   Unknown
3:00 PM 77.5 °F - 68.4 °F 73% 29.83 in - SW 1.2 mph - N/A   Unknown
4:00 PM 82.0 °F 85.5 °F 69.1 °F 65% 29.81 in - West 4.6 mph - N/A   Unknown
5:00 PM 82.6 °F 85.3 °F 67.3 °F 60% 29.78 in - WSW 6.9 mph - N/A   Unknown
6:00 PM 82 °F - 66 °F 50% 29.78 in - WSW 8.1 mph - -  
6:00 PM 82.0 °F 84.3 °F 66.4 °F 59% 29.78 in - WSW 8.1 mph - N/A   Unknown
7:00 PM 83.1 °F 84.8 °F 65.1 °F 54% 29.77 in - West 6.9 mph - N/A   Unknown
8:00 PM 81.5 °F 83.7 °F 66.2 °F 60% 29.77 in - WSW 3.5 mph - N/A   Unknown
9:00 PM 77 °F - 68 °F 66% 29.77 in - WSW 2.3 mph - -  
9:00 PM 77.0 °F - 67.6 °F 73% 29.77 in - WSW 2.3 mph - N/A   Unknown
10:00 PM 71.1 °F - 66.7 °F 86% 29.78 in - ENE 1.2 mph - N/A   Unknown
11:00 PM 68.7 °F - 65.8 °F 90% 29.78 in - Calm Calm - N/A   Unknown